Location: Mountain Grove
(34.0887°N, 86.6172°W)
Time: 21:59:23
(UTC+00:00)

Intercosmos 25 Rocket - Pass Details

Date: 14 July 2020
Orbit: 434 x 2985 km, 82.6° (Epoch: 08 August)

Event Time Altitude Azimuth Distance (km) Brightness Sun altitude
Rises 09:52:59 0° 346° (NNW) 2,845 7.3 -10.2°
Reaches altitude 10° 09:54:49 10° 342° (NNW) 2,107 6.5 -9.9°
Maximum altitude 09:59:18 59° 264° (W) 1,038 4.4 -9.1°
Drops below altitude 10° 10:06:41 10° 187° (S) 3,418 7.0 -7.9°
Sets 10:10:21 0° 184° (S) 4,810 7.7 -7.2°
